Retour au catalogue

STARLINK-31337

ActifCommunicationsVLEO
NORAD 58934·PAYLOAD·🇺🇸 United States

Lancé Feb 10, 2024 depuis Vandenberg Space Force Base

Loading…

Prochains Passages (prochaines 24 heures)

TLE

FraisSource: CelesTrak SupGP

Époque: Sep 15, 2026, 01:53 UTC

1 58934C 24027D   26258.07895833  .00000180  00000+0  53117-5 0  2588
2 58934  53.1589 148.8854 0001292  73.4319 137.2147 15.34393629    12

Suivez STARLINK-31337 en temps réel avec AllMySat

Download on the App Store